Location: Weatherford
(35.5260°N, 98.7070°W)
Time: 16:48:16
(UTC-06:00)

OPAL - Visible Passes

Search period start: 20 November 2014 00:00
Search period end: 30 November 2014 00:00
Orbit: 743 x 797 km, 100.2° (Epoch: 20 November)

Date Brightness Start Highest point End Pass type
(mag) Time Alt. Az. Time Alt. Az. Time Alt. Az.
20 Nov 7.4 05:19:44 10° SSE 05:24:45 89° ENE 05:28:19 19° NNW visible
20 Nov 9.4 19:11:50 10° N 19:16:02 28° WNW 19:20:16 10° SW visible
21 Nov 8.7 04:45:02 10° SE 04:49:37 38° ENE 04:52:28 20° NNE visible
21 Nov 8.7 06:24:53 10° SW 06:28:34 21° W 06:32:14 10° NW visible
21 Nov 7.9 18:36:01 10° N 18:40:58 63° WNW 18:45:57 10° SSW visible
22 Nov 9.9 04:11:28 10° ESE 04:14:39 17° ENE 04:16:38 14° NE visible
22 Nov 7.6 05:48:20 10° S 05:53:08 48° WSW 05:56:56 16° NNW visible
22 Nov 7.6 18:00:49 10° NNE 18:05:44 55° ESE 18:10:42 10° S visible
22 Nov 10.2 19:41:13 10° NNW 19:44:08 16° WNW 19:47:05 10° W visible
23 Nov 7.6 05:12:55 10° SSE 05:17:52 72° ENE 05:21:06 22° N visible
23 Nov 9.0 19:04:43 10° N 19:09:13 34° WNW 19:13:45 10° SW visible
24 Nov 9.1 04:38:28 10° SE 04:42:47 31° ENE 04:45:16 20° NNE visible
24 Nov 8.5 06:17:32 10° SSW 06:21:37 26° W 06:25:34 11° NW visible
24 Nov 7.6 18:29:05 10° NNE 18:34:07 79° WNW 18:39:11 10° SSW visible
25 Nov 10.1 04:05:22 10° E 04:07:53 14° ENE 04:09:27 12° NE visible
25 Nov 7.4 05:41:20 10° S 05:46:14 61° WSW 05:49:45 19° NNW visible
25 Nov 7.9 17:54:01 10° NNE 17:58:50 44° ESE 18:03:41 10° S visible
25 Nov 9.9 19:33:52 10° NNW 19:37:22 19° WNW 19:40:53 10° WSW visible
26 Nov 8.0 05:06:09 10° SSE 05:11:00 57° ENE 05:13:55 24° N visible
26 Nov 9.2 06:47:51 10° WSW 06:50:11 13° W 06:52:32 10° WNW visible
26 Nov 8.7 18:57:40 10° N 19:02:23 42° WNW 19:07:09 10° SW visible
27 Nov 9.4 04:31:58 10° ESE 04:35:58 25° ENE 04:38:06 19° NNE visible
27 Nov 8.2 06:10:17 10° SSW 06:14:40 32° W 06:18:24 13° NW visible
27 Nov 7.5 18:22:10 10° NNE 18:27:14 84° ESE 18:32:21 10° SSW visible
27 Nov 10.4 20:04:26 10° NW 20:05:24 11° WNW 20:06:22 10° WNW visible
28 Nov 10.3 03:59:39 10° ENE 04:01:07 11° ENE 04:02:17 10° NE visible
28 Nov 7.3 05:34:23 10° S 05:39:20 76° WSW 05:42:35 22° NNW visible
28 Nov 8.1 17:47:17 10° NE 17:51:56 36° E 17:56:36 10° SSE visible
28 Nov 9.6 19:26:37 10° NNW 19:30:34 24° WNW 19:34:33 10° WSW visible
29 Nov 8.4 04:59:27 10° SE 05:04:09 46° ENE 05:06:47 24° N visible
29 Nov 8.9 06:40:04 10° SW 06:43:13 17° W 06:46:22 10° NW visible
29 Nov 8.3 18:50:39 10° N 18:55:33 52° WNW 19:00:30 10° SW visible
